Location: Lake Arresoe
(56.0000°N, 12.5000°E)
Time: 11:01:28
(UTC+02:00)

Cosmos 1674 - Pass Details

Date: 17 August 2020
Orbit: 495 x 517 km, 82.5° (Epoch: 23 September)

Event Time Altitude Azimuth Distance (km) Brightness Sun altitude
Rises 02:08:17 0° 341° (NNW) 2,604 7.2 -19.7°
Reaches altitude 10° 02:10:32 10° 332° (NNW) 1,718 6.0 -19.7°
Maximum altitude 02:13:55 33° 268° (W) 870 3.6 -19.5°
Enters shadow 02:14:03 33° 263° (W) 872 3.6 -19.5°
